When you browse on this site, cookies collect data to enhance your experience and personalize the content and advertising you see.
Visit our Privacy Policy to learn more. By continuing to use the site, you agree to this use of cookies and data.
  • In Portugal
  • List of Countries
  • For 7 days
  • Water Temperature
  • Satellite Maps
  • Weather Map
  • Weather Widgets
  • user-avatar
    Login

    Hourly Weather Zarnowa

    Today, 25 March, Monday

    Time Temperature Precipitation Wind Pressure Humidity
    00:00 +7°C° 0.2 mm 1 mps 740 mmHg 66%
    01:00 +7°C° 0 mm 1 mps 739 mmHg 72%
    02:00 +7°C° 0.2 mm 1 mps 738 mmHg 75%
    03:00 +7°C° 0.2 mm 1 mps 738 mmHg 78%
    04:00 +6°C° 0.2 mm 1 mps 738 mmHg 81%
    05:00 +6°C° 0.1 mm 1 mps 737 mmHg 82%
    06:00 +6°C° 0.1 mm 2 mps 737 mmHg 82%
    07:00 +6°C° 0 mm 2 mps 737 mmHg 83%
    08:00 +7°C° 0 mm 2 mps 737 mmHg 75%
    09:00 +8°C° 0 mm 3 mps 736 mmHg 66%
    10:00 +9°C° 0 mm 3 mps 736 mmHg 58%
    11:00 +9°C° 0.1 mm 3 mps 736 mmHg 55%
    12:00 +10°C° 0.1 mm 4 mps 736 mmHg 52%
    13:00 +10°C° 0.1 mm 4 mps 735 mmHg 49%
    14:00 +10°C° 0.2 mm 4 mps 735 mmHg 50%
    15:00 +10°C° 0.2 mm 4 mps 735 mmHg 51%
    16:00 +8°C° 0.2 mm 4 mps 735 mmHg 52%
    17:00 +7°C° 0.1 mm 4 mps 735 mmHg 58%
    18:00 +6°C° 0.1 mm 4 mps 735 mmHg 63%
    19:00 +5°C° 0.1 mm 4 mps 736 mmHg 69%
    20:00 +4°C° 0 mm 4 mps 736 mmHg 72%
    21:00 +4°C° 0 mm 4 mps 737 mmHg 74%
    22:00 +3°C° 0 mm 3 mps 737 mmHg 77%
    23:00 +3°C° 0 mm 4 mps 738 mmHg 79%

    Tomorrow, 26 March, Tuesday

    Time Temperature Precipitation Wind Pressure Humidity
    00:00 +1°C° 0 mm 4 mps 738 mmHg 81%
    01:00 +1°C° 0 mm 4 mps 739 mmHg 84%
    02:00 +1°C° 0 mm 4 mps 739 mmHg 86%
    03:00 0°C° 0 mm 4 mps 740 mmHg 88%
    04:00 +1°C° 0 mm 3 mps 740 mmHg 90%
    05:00 0°C° 0 mm 4 mps 741 mmHg 87%
    06:00 0°C° 0 mm 4 mps 741 mmHg 85%
    07:00 0°C° 0 mm 4 mps 742 mmHg 83%
    08:00 +1°C° 0 mm 5 mps 742 mmHg 77%
    09:00 +2°C° 0 mm 5 mps 742 mmHg 71%
    10:00 +3°C° 0 mm 6 mps 743 mmHg 66%
    11:00 +4°C° 0 mm 6 mps 742 mmHg 63%
    12:00 +4°C° 0 mm 6 mps 742 mmHg 59%
    13:00 +5°C° 0 mm 6 mps 742 mmHg 56%
    14:00 +5°C° 0 mm 7 mps 742 mmHg 56%
    15:00 +5°C° 0 mm 7 mps 741 mmHg 56%
    16:00 +5°C° 0 mm 8 mps 741 mmHg 56%
    17:00 +4°C° 0.2 mm 8 mps 741 mmHg 59%
    18:00 +4°C° 0.2 mm 8 mps 741 mmHg 62%
    19:00 +3°C° 0.2 mm 7 mps 741 mmHg 64%
    20:00 +2°C° 0.1 mm 7 mps 742 mmHg 67%
    21:00 +2°C° 0.1 mm 7 mps 742 mmHg 69%
    22:00 0°C° 0.1 mm 7 mps 743 mmHg 72%
    23:00 -1°C° 0 mm 6 mps 744 mmHg 70%

    Day after tomorrow, 27 March, Wednesday

    Time Temperature Precipitation Wind Pressure Humidity
    00:00 -2°C° 0 mm 5 mps 744 mmHg 67%
    01:00 -3°C° 0 mm 4 mps 745 mmHg 65%
    02:00 -2°C° 0 mm 3 mps 745 mmHg 67%
    03:00 -4°C° 0 mm 3 mps 745 mmHg 69%
    04:00 -4°C° 0 mm 3 mps 746 mmHg 71%
    05:00 -2°C° 0 mm 3 mps 746 mmHg 67%
    06:00 -2°C° 0 mm 4 mps 747 mmHg 64%
    07:00 -2°C° 0 mm 4 mps 747 mmHg 60%
    08:00 0°C° 0 mm 4 mps 747 mmHg 55%
    09:00 +1°C° 0 mm 4 mps 747 mmHg 49%
    10:00 +4°C° 0 mm 4 mps 748 mmHg 43%
    11:00 +5°C° 0 mm 4 mps 748 mmHg 41%
    12:00 +5°C° 0 mm 4 mps 747 mmHg 39%
    13:00 +6°C° 0 mm 4 mps 747 mmHg 36%
    14:00 +6°C° 0 mm 4 mps 747 mmHg 41%
    15:00 +6°C° 0 mm 4 mps 747 mmHg 45%
    16:00 +6°C° 0 mm 4 mps 747 mmHg 49%
    17:00 +5°C° 0.1 mm 3 mps 747 mmHg 57%
    18:00 +5°C° 0.1 mm 2 mps 748 mmHg 65%
    19:00 +6°C° 0.1 mm 1 mps 748 mmHg 74%
    20:00 +5°C° 0.4 mm 1 mps 748 mmHg 77%
    21:00 +5°C° 0.4 mm 1 mps 748 mmHg 80%
    22:00 +5°C° 0.4 mm 1 mps 749 mmHg 83%
    23:00 +5°C° 0.2 mm 1 mps 749 mmHg 86%

    28 March, Thursday

    Time Temperature Precipitation Wind Pressure Humidity
    00:00 +5°C° 0.2 mm 1 mps 749 mmHg 89%
    01:00 +5°C° 0.2 mm 1 mps 749 mmHg 91%
    02:00 +5°C° 0 mm 1 mps 749 mmHg 93%
    03:00 +4°C° 0 mm 1 mps 749 mmHg 94%
    04:00 +4°C° 0 mm 1 mps 749 mmHg 96%
    05:00 +4°C° 0 mm 1 mps 749 mmHg 94%
    06:00 +5°C° 0 mm 1 mps 749 mmHg 93%
    07:00 +6°C° 0 mm 1 mps 750 mmHg 91%
    08:00 +6°C° 0.1 mm 1 mps 750 mmHg 88%
    09:00 +7°C° 0.1 mm 1 mps 750 mmHg 85%
    10:00 +8°C° 0.1 mm 1 mps 750 mmHg 81%
    11:00 +8°C° 0.2 mm 1 mps 750 mmHg 79%
    12:00 +9°C° 0.2 mm 1 mps 750 mmHg 76%
    13:00 +10°C° 0.2 mm 1 mps 750 mmHg 73%
    14:00 +10°C° 0.1 mm 1 mps 750 mmHg 71%
    15:00 +10°C° 0.1 mm 1 mps 750 mmHg 69%
    16:00 +10°C° 0.1 mm 1 mps 750 mmHg 67%
    17:00 +9°C° 0 mm 1 mps 750 mmHg 73%
    18:00 +8°C° 0 mm 1 mps 751 mmHg 78%
    19:00 +6°C° 0 mm 1 mps 751 mmHg 84%
    20:00 +6°C° 0 mm 1 mps 751 mmHg 85%
    21:00 +5°C° 0 mm 1 mps 752 mmHg 86%
    22:00 +4°C° 0 mm 0 mps 752 mmHg 86%
    23:00 +4°C° 0 mm 0 mps 752 mmHg 87%

    29 March, Friday

    Time Temperature Precipitation Wind Pressure Humidity
    00:00 +3°C° 0 mm 0 mps 752 mmHg 87%
    01:00 +3°C° 0 mm 0 mps 753 mmHg 87%
    02:00 +3°C° 0 mm 0 mps 753 mmHg 88%
    03:00 +2°C° 0 mm 0 mps 753 mmHg 88%
    04:00 +3°C° 0 mm 1 mps 753 mmHg 89%
    05:00 +4°C° 0 mm 1 mps 753 mmHg 87%
    06:00 +5°C° 0 mm 1 mps 753 mmHg 86%
    07:00 +5°C° 0 mm 1 mps 753 mmHg 85%
    08:00 +6°C° 0 mm 2 mps 753 mmHg 80%
    09:00 +8°C° 0 mm 2 mps 753 mmHg 74%
    10:00 +9°C° 0 mm 3 mps 753 mmHg 69%
    11:00 +10°C° 0 mm 3 mps 753 mmHg 67%
    12:00 +10°C° 0 mm 3 mps 752 mmHg 65%
    13:00 +11°C° 0 mm 3 mps 752 mmHg 63%
    14:00 +11°C° 0 mm 3 mps 751 mmHg 60%
    15:00 +12°C° 0 mm 3 mps 751 mmHg 58%
    16:00 +12°C° 0 mm 3 mps 751 mmHg 55%
    17:00 +11°C° 0 mm 3 mps 751 mmHg 61%
    18:00 +9°C° 0 mm 2 mps 751 mmHg 68%
    19:00 +7°C° 0 mm 2 mps 751 mmHg 74%
    20:00 +7°C° 0 mm 2 mps 751 mmHg 75%
    21:00 +7°C° 0 mm 2 mps 751 mmHg 77%
    22:00 +6°C° 0 mm 2 mps 751 mmHg 78%
    23:00 +6°C° 0 mm 2 mps 750 mmHg 80%

    30 March, Saturday

    Time Temperature Precipitation Wind Pressure Humidity
    00:00 +6°C° 0 mm 2 mps 750 mmHg 81%
    01:00 +5°C° 0 mm 2 mps 750 mmHg 82%
    02:00 +5°C° 0 mm 2 mps 750 mmHg 84%
    03:00 +5°C° 0 mm 2 mps 750 mmHg 87%
    04:00 +5°C° 0 mm 2 mps 750 mmHg 89%
    05:00 +5°C° 0 mm 2 mps 750 mmHg 87%
    06:00 +6°C° 0 mm 2 mps 750 mmHg 86%
    07:00 +7°C° 0 mm 2 mps 750 mmHg 84%
    08:00 +9°C° 0 mm 2 mps 749 mmHg 79%
    09:00 +10°C° 0 mm 3 mps 749 mmHg 75%
    10:00 +12°C° 0 mm 3 mps 749 mmHg 70%
    11:00 +13°C° 0 mm 3 mps 748 mmHg 67%
    12:00 +14°C° 0 mm 3 mps 748 mmHg 63%
    13:00 +14°C° 0 mm 3 mps 747 mmHg 60%
    14:00 +16°C° 0 mm 2 mps 747 mmHg 59%
    15:00 +16°C° 0 mm 2 mps 746 mmHg 57%
    16:00 +16°C° 0 mm 2 mps 746 mmHg 55%
    17:00 +15°C° 0 mm 2 mps 746 mmHg 61%
    18:00 +13°C° 0 mm 1 mps 745 mmHg 67%
    19:00 +11°C° 0 mm 1 mps 745 mmHg 73%
    20:00 +11°C° 0 mm 1 mps 745 mmHg 75%
    21:00 +10°C° 0 mm 1 mps 744 mmHg 77%
    22:00 +10°C° 0 mm 1 mps 744 mmHg 79%
    23:00 +9°C° 0 mm 1 mps 744 mmHg 81%
    Show more